Weather History for Deer Park, WA

Change the Weather History Date:

Wednesday, November 21, 2012

  Actual Average Record
Temperature  
Mean Temperature 39 °F 32 °F  
Max Temperature 46 °F 39 °F 54 °F (2002)
Min Temperature 32 °F 25 °F 6 °F (2003)
Degree Days  
Heating Degree Days 26 33  
Month to date heating degree days 554 623  
Since 1 July heating degree days 1466 1691  
Cooling Degree Days 0 0  
Month to date cooling degree days 0 0  
Year to date cooling degree days 232 187  
Moisture  
Dew Point 35 °F    
Average Humidity 80    
Maximum Humidity 100    
Minimum Humidity 59    
Precipitation  
Precipitation 0.31 in 0.12 in 0.31 in (2012)
Month to date precipitation 3.29 2.26  
Year to date precipitation 23.29 18.32  
Sea Level Pressure  
Sea Level Pressure 29.81 in    
Wind  
Wind Speed 12 mph (South)    
Max Wind Speed 28 mph    
Max Gust Speed 35 mph    
Visibility 9 miles    
Events Rain    
T = Trace of Precipitation, MM = Missing Value Source: NWS Daily Summary

Daily Weather History Graph

Daily Weather History Graph

Search for Another Location

Airport:

Trip Planner

Search our weather history database for the weather conditions in past years. The results will help you decide how hot, cold, wet, or windy it might be!

Date:

Astronomy

Nov. 21, 2012 Rise Set
Actual Time 7:05 AM PST 4:05 PM PST
Civil Twilight 6:31 AM PST 4:39 PM PST
Nautical Twilight 5:52 AM PST 5:18 PM PST
Astronomical Twilight 5:15 AM PST 5:55 PM PST
Moon 12:49 PM PST (11/21) 12:01 AM PST (11/21)
Length of Visible Light 10h 08m
Length of Day
8h 59m
Waxing Gibbous, 63% of the Moon is Illuminated
Nov 21
Waxing Gibbous
Nov 28
Full
Dec 6
Last Quarter
Dec 13
New
Dec 19
First Quarter

Hourly Weather History & Observations

Time (PST) Temp. Windchill Dew Point Humidity Pressure Visibility Wind Dir Wind Speed Gust Speed Precip Events Conditions
12:53 AM 35.1 °F 30.1 °F 35.1 °F 100% 29.71 in 8.0 mi NNE 5.8 mph - N/A   Scattered Clouds
1:04 AM 35.6 °F - 35.6 °F 100% 29.68 in 2.5 mi Calm Calm - N/A   Mostly Cloudy
1:12 AM 37.4 °F 34.9 °F 37.4 °F 100% 29.68 in 9.0 mi NE 3.5 mph - N/A   Overcast
1:22 AM 37.4 °F 34.9 °F 35.6 °F 93% 29.69 in 4.0 mi West 3.5 mph - N/A   Overcast
1:53 AM 39.0 °F 36.8 °F 37.9 °F 96% 29.72 in 10.0 mi West 3.5 mph - 0.00 in   Overcast
2:03 AM 39.2 °F - 37.4 °F 93% 29.69 in 10.0 mi Calm Calm - 0.00 in Rain Light Rain
2:53 AM 39.9 °F 35.1 °F 39.0 °F 97% 29.68 in 10.0 mi East 6.9 mph - 0.00 in   Overcast
3:53 AM 39.9 °F 37.8 °F 39.0 °F 97% 29.66 in 10.0 mi ENE 3.5 mph - N/A   Overcast
4:53 AM 39.0 °F - 37.9 °F 96% 29.67 in 7.0 mi Calm Calm - 0.02 in Rain Rain
5:02 AM 39.2 °F - 39.2 °F 100% 29.64 in 6.0 mi Calm Calm - 0.02 in Rain Light Rain
5:53 AM 39.0 °F 34.0 °F 39.0 °F 100% 29.66 in 8.0 mi North 6.9 mph - 0.06 in Rain Light Rain
6:04 AM 39.2 °F 35.0 °F 39.2 °F 100% 29.63 in 7.0 mi North 5.8 mph - 0.01 in Rain Light Rain
6:53 AM 39.0 °F - 37.9 °F 96% 29.68 in 7.0 mi Calm Calm - 0.04 in Rain Rain
7:53 AM 37.0 °F 30.4 °F 37.0 °F 100% 29.69 in 2.0 mi North 9.2 mph - 0.19 in Rain Heavy Rain
8:03 AM 37.4 °F 31.4 °F 37.4 °F 100% 29.64 in 9.0 mi NNE 8.1 mph - 0.00 in Rain Light Rain
8:13 AM 37.4 °F 33.8 °F 37.4 °F 100% 29.65 in 10.0 mi East 4.6 mph - 0.00 in   Mostly Cloudy
8:43 AM 37.4 °F 32.8 °F 37.4 °F 100% 29.69 in 10.0 mi SSE 5.8 mph - 0.00 in Rain Light Rain
8:53 AM 37.9 °F 32.7 °F 37.0 °F 97% 29.72 in 10.0 mi SE 6.9 mph - 0.00 in   Overcast
9:28 AM 39.2 °F 33.6 °F 37.4 °F 93% 29.72 in 10.0 mi South 8.1 mph 16.1 mph N/A   Overcast
9:40 AM 41.0 °F 33.5 °F 39.2 °F 93% 29.73 in 10.0 mi SSW 13.8 mph 21.9 mph N/A   Overcast
9:53 AM 39.9 °F 31.1 °F 37.9 °F 93% 29.77 in 10.0 mi SSW 17.3 mph 23.0 mph N/A   Overcast
10:53 AM 42.1 °F 33.6 °F 37.0 °F 82% 29.80 in 10.0 mi SSW 18.4 mph 28.8 mph N/A   Overcast
11:53 AM 42.1 °F 33.6 °F 36.0 °F 79% 29.81 in 10.0 mi SSW 18.4 mph 29.9 mph N/A   Overcast
12:06 PM 44.6 °F 35.7 °F 35.6 °F 71% 29.79 in 10.0 mi SSW 24.2 mph 29.9 mph N/A   Mostly Cloudy
12:33 PM 44.6 °F 36.4 °F 35.6 °F 71% 29.80 in 10.0 mi SSW 20.7 mph 26.5 mph N/A   Mostly Cloudy
12:53 PM 44.1 °F 35.0 °F 34.0 °F 68% 29.85 in 10.0 mi SSW 24.2 mph 34.5 mph N/A   Mostly Cloudy
1:53 PM 45.0 °F 36.0 °F 32.0 °F 60% 29.86 in 10.0 mi SSW 25.3 mph 34.5 mph N/A   Scattered Clouds
2:53 PM 43.0 °F 36.0 °F 32.0 °F 65% 29.90 in 10.0 mi SSW 13.8 mph 27.6 mph N/A   Mostly Cloudy
3:53 PM 42.1 °F 34.9 °F 30.9 °F 65% 29.93 in 10.0 mi SSW 13.8 mph - N/A   Scattered Clouds
4:53 PM 41.0 °F 33.5 °F 32.0 °F 70% 29.96 in 10.0 mi SSW 13.8 mph - 0.00 in Rain Light Rain
5:53 PM 41.0 °F 31.6 °F 32.0 °F 70% 29.97 in 10.0 mi SW 20.7 mph 26.5 mph N/A   Mostly Cloudy
6:53 PM 39.0 °F 29.6 °F 27.0 °F 62% 29.99 in 10.0 mi SSW 18.4 mph 24.2 mph N/A   Mostly Cloudy
7:53 PM 37.9 °F 33.5 °F 28.9 °F 70% 30.05 in 10.0 mi Variable 5.8 mph - N/A   Clear
8:53 PM 35.1 °F 27.9 °F 30.0 °F 82% 30.07 in 10.0 mi South 9.2 mph - N/A   Scattered Clouds
9:19 PM 35.6 °F 30.7 °F 30.2 °F 81% 30.05 in 10.0 mi SSE 5.8 mph - N/A   Mostly Cloudy
9:36 PM 35.6 °F 29.2 °F 30.2 °F 81% 30.07 in 10.0 mi South 8.1 mph - N/A   Scattered Clouds
9:53 PM 35.1 °F 26.4 °F 30.0 °F 82% 30.12 in 10.0 mi SSW 12.7 mph - N/A   Clear
10:53 PM 33.1 °F 24.9 °F 28.9 °F 85% 30.15 in 10.0 mi SSE 10.4 mph - N/A   Clear
11:53 PM 32.0 °F 23.6 °F 28.9 °F 88% 30.21 in 10.0 mi South 10.4 mph - N/A   Clear